Погода в Брацлаве

Украина / Винницкая область     48°48′52″N   28°56′40″E
темп.,
°C
ветер,
м/с
пор.,
м/с
влажн.,
%
обл.,
%
осадки,
мм/ч
давл.,
гПа
погр.,
м
24 июля, сб
сб2400:00+16сз22770 0.0 101611
03:00+14ссз22780 0.0 101612
06:00+14ссз22812 0.0 101626
09:00+20с226642 0.0 1016301
12:00+23ссв225240 0.0 10171391
15:00+23с2361100 0.0 1017659
18:00+24ссз125242 0.0 10171207
21:00+19с116059 0.0 101811
25 июля, вс
вс2500:00+19всв016384 0.0 101911
03:00+18ююв1163100 0.0 101911
06:00+18юв1161100 0.0 101911
09:00+20юв2368100 0.0 102073
12:00+22юв335958 0.0 1020285
15:00+25ююв224333 0.0 10192100
18:00+25ююв124457 0.0 10191926
21:00+21в3358100 0.0 102049
26 июля, пн
пн2600:00+19вюв235845 0.0 102038
03:00+17юв33669 0.0 102133
06:00+18юв2362100 0.0 102157
09:00+19вюв366982 0.0 1021159
12:00+24юв3556100 0.0 1021553
15:00+27вюв344651 0.0 10201851
18:00+25вюв346021 0.0 1020119
21:00+23вюв375586 0.0 1020119
27 июля, вт
вт2700:00+19вюв376610 0.0 102095
03:00+18юв37719 0.0 1020111
06:00+17юв39715 0.0 1020147
09:00+23юв59624 0.0 1019318
12:00+28ююв68465 0.0 10191245
15:00+29ю674157 0.0 10181857
18:00+29ю475121 0.0 1018780
21:00+23ююв47635 0.0 1017108
28 июля, ср
ср2800:00+21ююв41265100 0.0 1018220
03:00+20ю4146246 0.0 1017275
06:00+19ююв4126699 0.2 1016249
09:00+19ююв51381100 1.4 1016305
12:00+25ю811685 1.9 1016739
15:00+29ююз785153 1.9 1014970
18:00+29ююз6857100 0.0 1014767
21:00+21зюз2266100 1.8 101326